This demonstration page uses our WeatherBlox Daily Observations layout. Learn more.

Left ArrowRight Arrow

39.51506, -84.39828

Hourly Observations for November 20, 2021

Temp ( °F °C ) Dew Point ( °F °C ) Humidity (%) Winds ( mph kmh ) Pressure ( in mb ) Visibility ( mi km ) Precip ( " mm )
12:15 am 00:15 Clear 31 -0.3 22 -5.5 68 68 Calm 30.47 1032 10 16 0.00 0.00
12:35 am 00:35 Clear 31 -0.4 22 -5.4 69 69 Calm 30.47 1032 10 16 0.00 0.00
12:55 am 00:55 Clear 32 -0.1 22 -5.5 67 67 Calm 30.46 1031 10 16 0.00 0.00
1:15 am 01:15 Clear 32 0 22 -5.4 67 67 Calm 30.44 1031 10 16 0.00 0.00
1:35 am 01:35 Clear 32 0 23 -5.1 69 69 Calm 30.44 1031 10 16 0.00 0.00
1:55 am 01:55 Clear 32 0.1 22 -5.4 67 67 Calm 30.43 1030 10 16 0.00 0.00
2:15 am 02:15 Clear 32 0 22 -5.7 66 66 Calm 30.43 1030 10 16 0.00 0.00
2:35 am 02:35 Clear 32 0 22 -5.8 65 65 Calm 30.43 1030 10 16 0.00 0.00
2:55 am 02:55 Clear 29 -1.6 25 -3.9 85 85 Calm 30.44 1031 10 16 0.00 0.00
3:15 am 03:15 Clear 29 -1.8 24 -4.3 83 83 Calm 30.44 1031 10 16 0.00 0.00
3:35 am 03:35 Clear 28 -2.1 24 -4.2 86 86 Calm 30.44 1031 10 16 0.00 0.00
3:55 am 03:55 Clear 28 -2.4 24 -4.4 86 86 Calm 30.43 1031 10 16 0.00 0.00
4:15 am 04:15 Clear 28 -2.4 24 -4.5 86 86 Calm 30.42 1030 10 16 0.00 0.00
4:35 am 04:35 Clear 28 -2.4 26 -3.5 92 92 Calm 30.42 1030 10 16 0.00 0.00
4:55 am 04:55 Clear 28 -2 26 -3.1 92 92 Calm 30.42 1030 10 16 0.00 0.00
5:15 am 05:15 Clear 28 -2.2 26 -3.3 92 92 Calm 30.42 1030 10 16 0.00 0.00
5:35 am 05:35 Clear 27 -2.8 25 -3.8 93 93 Calm 30.42 1030 10 16 0.00 0.00
5:55 am 05:55 Clear 27 -2.9 25 -4 92 92 Calm 30.41 1030 10 16 0.00 0.00
6:15 am 06:15 Clear 28 -2.3 25 -3.7 90 90 Calm 30.40 1030 10 16 0.00 0.00
6:35 am 06:35 Clear 29 -1.6 26 -3.2 89 89 Calm 30.41 1030 10 16 0.00 0.00
6:55 am 06:55 Clear 31 -0.8 25 -4.1 79 79 Calm 30.41 1030 10 16 0.00 0.00
7:15 am 07:15 Clear 31 -0.4 23 -5.1 71 71 Calm 30.40 1029 10 16 0.00 0.00
7:35 am 07:35 Sunny 31 -0.5 23 -5.2 71 71 S 6 9 30.40 1029 10 16 0.00 0.00
7:55 am 07:55 Sunny 32 -0.2 23 -4.8 71 71 Calm 30.40 1029 10 16 0.00 0.00
8:15 am 08:15 Sunny 32 0.2 23 -4.8 69 69 Calm 30.40 1029 10 16 0.00 0.00
8:35 am 08:35 Sunny 32 0.2 25 -3.9 74 74 Calm 30.40 1029 10 16 0.00 0.00
8:55 am 08:55 Sunny 34 1.2 24 -4.3 67 67 Calm 30.38 1029 10 16 0.00 0.00
9:15 am 09:15 Sunny 34 1.3 24 -4.5 66 66 SSW 7 11 30.38 1029 10 16 0.00 0.00
9:35 am 09:35 Sunny 34 1.3 24 -4.2 67 67 S 7 11 30.37 1029 10 16 0.00 0.00
9:55 am 09:55 Sunny 35 1.8 25 -3.7 67 67 SSW 8 13 30.36 1028 10 16 0.00 0.00
10:15 am 10:15 Sunny 36 2.4 26 -3.1 67 67 WSW 7 11 30.36 1028 10 16 0.00 0.00
10:35 am 10:35 Sunny 39 3.7 26 -3.5 60 60 SSW 9 15 30.36 1028 10 16 0.00 0.00
10:55 am 10:55 Sunny 41 5.1 26 -3.3 55 55 SW 10 17 30.35 1028 10 16 0.00 0.00
11:15 am 11:15 Sunny 41 5 26 -3.6 54 54 SW 9 15 30.34 1027 10 16 0.00 0.00
11:35 am 11:35 Sunny 42 5.8 27 -2.9 54 54 SW 8 13 30.34 1027 10 16 0.00 0.00
11:55 am 11:55 Sunny 45 7 27 -3 49 49 SSW 5 7 30.32 1027 10 16 0.00 0.00
12:15 pm 12:15 Sunny 47 8.5 28 -2.5 46 46 WSW 15 24 30.30 1026 10 16 0.00 0.00
12:35 pm 12:35 Sunny 48 8.8 26 -3.6 42 42 WSW 16 26 30.30 1026 10 16 0.00 0.00
12:55 pm 12:55 Sunny 48 9 26 -3.2 42 42 WSW 16 26 30.29 1026 10 16 0.00 0.00
1:15 pm 13:15 Partly Cloudy 47 8.3 26 -3.3 44 44 WSW 13 20 30.28 1026 10 16 0.00 0.00
1:35 pm 13:35 Mostly Cloudy 47 8.3 26 -3.1 45 45 WSW 12 19 30.27 1025 10 16 0.00 0.00
1:55 pm 13:55 Cloudy 47 8.4 27 -2.8 46 46 SW 9 15 30.26 1025 10 16 0.00 0.00
2:15 pm 14:15 Cloudy 47 8.6 27 -2.9 45 45 SSW 10 17 30.24 1024 10 16 0.00 0.00
2:35 pm 14:35 Cloudy 48 9.1 27 -2.9 43 43 WSW 9 15 30.25 1024 10 16 0.00 0.00
2:55 pm 14:55 Cloudy 48 9 27 -2.7 44 44 SW 9 15 30.24 1024 10 16 0.00 0.00
3:15 pm 15:15 Cloudy 49 9.4 28 -2.2 44 44 SW 10 17 30.24 1024 10 16 0.00 0.00
3:35 pm 15:35 Cloudy 49 9.3 28 -2.2 45 45 WSW 7 11 30.24 1024 10 16 0.00 0.00
3:55 pm 15:55 Cloudy 49 9.5 28 -2.2 44 44 WSW 3 6 30.25 1024 10 16 0.00 0.00
4:15 pm 16:15 Cloudy 49 9.2 30 -1 49 49 Calm 30.25 1024 10 16 0.00 0.00
4:35 pm 16:35 Cloudy 49 9.2 29 -1.5 47 47 Calm 30.25 1024 10 16 0.00 0.00
4:55 pm 16:55 Cloudy 48 9.1 29 -1.4 48 48 Calm 30.25 1024 10 16 0.00 0.00
5:15 pm 17:15 Cloudy 48 9 31 -0.7 51 51 Calm 30.25 1024 10 16 0.00 0.00
5:35 pm 17:35 Cloudy 47 8.4 31 -0.7 53 53 Calm 30.25 1024 10 16 0.00 0.00
5:55 pm 17:55 Mostly Cloudy 44 6.4 36 2 74 74 Calm 30.26 1025 10 16 0.00 0.00
6:15 pm 18:15 Partly Cloudy 41 5.2 38 3.1 86 86 Calm 30.27 1025 10 16 0.00 0.00
6:35 pm 18:35 Clear 40 4.3 37 2.8 90 90 Calm 30.27 1025 10 16 0.00 0.00
6:55 pm 18:55 Clear 39 3.8 35 1.9 88 88 Calm 30.28 1025 10 16 0.00 0.00
7:15 pm 19:15 Clear 37 3 34 1.1 87 87 Calm 30.28 1025 10 16 0.00 0.00
7:35 pm 19:35 Clear 37 2.5 34 1 90 90 Calm 30.28 1025 10 16 0.00 0.00
7:55 pm 19:55 Clear 36 2.2 32 0.2 87 87 Calm 30.28 1025 10 16 0.00 0.00
8:15 pm 20:15 Clear 35 1.8 33 0.4 91 91 Calm 30.28 1025 10 16 0.00 0.00
8:35 pm 20:35 Clear 35 1.4 31 -0.3 89 89 Calm 30.28 1025 10 16 0.00 0.00
8:55 pm 20:55 Clear 33 0.6 30 -0.9 90 90 Calm 30.28 1026 10 16 0.00 0.00
9:15 pm 21:15 Clear 33 0.6 31 -0.7 91 91 Calm 30.28 1026 10 16 0.00 0.00
9:35 pm 21:35 Clear 33 0.4 31 -0.4 94 94 Calm 30.28 1026 10 16 0.00 0.00
9:55 pm 21:55 Clear 32 0.1 31 -0.7 94 94 Calm 30.28 1025 10 16 0.00 0.00
10:15 pm 22:15 Clear 32 0 30 -1.1 92 92 Calm 30.28 1025 10 16 0.00 0.00
10:35 pm 22:35 Clear 31 -0.5 30 -1.3 94 94 Calm 30.29 1026 10 16 0.00 0.00
10:55 pm 22:55 Clear 32 -0.2 30 -1.1 94 94 Calm 30.29 1026 10 16 0.00 0.00
11:15 pm 23:15 Clear 32 0 30 -0.9 94 94 Calm 30.28 1025 10 16 0.00 0.00
11:35 pm 23:35 Clear 32 -0.2 30 -1 94 94 Calm 30.28 1025 10 16 0.00 0.00
11:55 pm 23:55 Clear 31 -0.3 30 -1.2 94 94 Calm 30.28 1025 10 16 0.00 0.00

Powered by AerisWeather